| time (UTC) | temp F | wind direction | speed MPH | gust MPH | rain 1hr in | rain 24hr in | rain mn in | humidity % | barometer mb |
| 20260510205018 | 52 | 210 | 1.0 | 10.0 | 0.00 | 0.10 | 0.10 | 95 | 1008.9 |
| 20260510204817 | 52 | 210 | 1.0 | 4.0 | 0.00 | 0.10 | 0.10 | 95 | 1008.9 |
| 20260510204612 | 52 | 181 | 1.0 | 4.0 | 0.00 | 0.10 | 0.10 | 95 | 1008.9 |
| 20260510204406 | 52 | 195 | 0.0 | 4.0 | 0.00 | 0.10 | 0.10 | 95 | 1009.0 |
| 20260510204202 | 52 | 216 | 0.0 | 4.0 | 0.00 | 0.10 | 0.10 | 94 | 1009.0 |
| 20260510203952 | 52 | 81 | 0.0 | 4.0 | 0.00 | 0.10 | 0.10 | 94 | 1009.0 |
| 20260510203750 | 52 | 192 | 0.0 | 4.0 | 0.00 | 0.10 | 0.10 | 94 | 1008.9 |
| 20260510203225 | 52 | 202 | 0.0 | 3.0 | 0.00 | 0.10 | 0.10 | 94 | 1008.9 |
| 20260510203021 | 52 | 150 | 0.0 | 3.0 | 0.00 | 0.10 | 0.10 | 94 | 1008.9 |
| 20260510202500 | 52 | 211 | 0.0 | 3.0 | 0.00 | 0.10 | 0.10 | 94 | 1008.9 |
| 20260510202259 | 52 | 210 | 0.0 | 3.0 | 0.00 | 0.10 | 0.10 | 94 | 1008.9 |
| 20260510202056 | 52 | 150 | 0.0 | 3.0 | 0.00 | 0.10 | 0.10 | 94 | 1008.9 |
| 20260510201853 | 52 | 162 | 0.0 | 3.0 | 0.00 | 0.10 | 0.10 | 94 | 1008.9 |
| 20260510201643 | 52 | 240 | 0.0 | 3.0 | 0.00 | 0.10 | 0.10 | 94 | 1008.9 |
| 20260510201434 | 52 | 193 | 0.0 | 2.0 | 0.00 | 0.10 | 0.10 | 94 | 1008.9 |
| 20260510200914 | 52 | 232 | 0.0 | 2.0 | 0.00 | 0.10 | 0.10 | 94 | 1008.9 |
| 20260510200705 | 52 | 233 | 0.0 | 4.0 | 0.00 | 0.10 | 0.10 | 94 | 1008.9 |
| 20260510200457 | 52 | 209 | 0.0 | 4.0 | 0.00 | 0.10 | 0.10 | 94 | 1008.8 |
| 20260510200256 | 52 | 221 | 0.0 | 4.0 | 0.00 | 0.10 | 0.10 | 94 | 1008.9 |
| 20260510195735 | 52 | 219 | 0.0 | 4.0 | 0.00 | 0.10 | 0.10 | 95 | 1008.9 |
| 20260510195533 | 52 | 219 | 0.0 | 4.0 | 0.00 | 0.10 | 0.10 | 96 | 1008.9 |
| 20260510195331 | 52 | 209 | 0.0 | 4.0 | 0.00 | 0.10 | 0.10 | 96 | 1008.9 |
| 20260510195131 | 52 | 221 | 0.0 | 4.0 | 0.00 | 0.10 | 0.10 | 96 | 1009.0 |
| 20260510194932 | 52 | 158 | 0.0 | 4.0 | 0.00 | 0.10 | 0.10 | 96 | 1009.0 |
| 20260510194729 | 52 | 221 | 0.0 | 2.0 | 0.00 | 0.10 | 0.10 | 96 | 1008.9 |
| 20260510194158 | 52 | 151 | 0.0 | 0.0 | 0.00 | 0.10 | 0.10 | 96 | 1008.8 |
| 20260510193626 | 52 | 122 | 0.0 | 2.0 | 0.00 | 0.10 | 0.10 | 96 | 1008.8 |
| 20260510193426 | 52 | 187 | 0.0 | 2.0 | 0.00 | 0.10 | 0.10 | 95 | 1008.8 |
| 20260510193227 | 52 | 213 | 0.0 | 2.0 | 0.00 | 0.10 | 0.10 | 95 | 1008.7 |
| 20260510193024 | 52 | 225 | 0.0 | 2.0 | 0.00 | 0.10 | 0.10 | 95 | 1008.8 |
| 20260510192151 | 52 | 217 | 0.0 | 0.0 | 0.00 | 0.10 | 0.10 | 96 | 1008.8 |
| 20260510191948 | 52 | 217 | 0.0 | 0.0 | 0.00 | 0.10 | 0.10 | 96 | 1008.8 |
| 20260510191738 | 52 | 219 | 0.0 | 4.0 | 0.00 | 0.10 | 0.10 | 96 | 1008.8 |
| 20260510191219 | 52 | 285 | 0.0 | 4.0 | 0.00 | 0.10 | 0.10 | 97 | 1008.9 |
| 20260510191016 | 52 | 224 | 0.0 | 4.0 | 0.00 | 0.10 | 0.10 | 97 | 1008.9 |
| 20260510190805 | 52 | 211 | 0.0 | 4.0 | 0.00 | 0.10 | 0.10 | 97 | 1008.9 |
| 20260510190604 | 52 | 207 | 0.0 | 2.0 | 0.00 | 0.10 | 0.10 | 97 | 1008.9 |
| 20260510190359 | 52 | 252 | 0.0 | 2.0 | 0.00 | 0.10 | 0.10 | 97 | 1008.9 |
| 20260510190155 | 52 | 244 | 0.0 | 2.0 | 0.00 | 0.10 | 0.10 | 97 | 1008.6 |
| 20260510185949 | 52 | 219 | 0.0 | 2.0 | 0.00 | 0.10 | 0.10 | 97 | 1008.8 |
| 20260510185434 | 52 | 252 | 0.0 | 2.0 | 0.00 | 0.10 | 0.10 | 97 | 1008.8 |
| 20260510184921 | 52 | 53 | 0.0 | 3.0 | 0.00 | 0.10 | 0.10 | 97 | 1008.8 |
| 20260510184713 | 52 | 210 | 0.0 | 3.0 | 0.00 | 0.10 | 0.10 | 97 | 1008.8 |
| 20260510184154 | 52 | 247 | 0.0 | 5.0 | 0.00 | 0.10 | 0.10 | 97 | 1008.8 |
| 20260510183636 | 52 | 203 | 0.0 | 5.0 | 0.00 | 0.10 | 0.10 | 97 | 1008.8 |
| 20260510183430 | 51 | 95 | 0.0 | 5.0 | 0.00 | 0.10 | 0.10 | 97 | 1008.8 |
| 20260510182908 | 52 | 228 | 0.0 | 5.0 | 0.00 | 0.10 | 0.10 | 97 | 1008.6 |
| 20260510182705 | 52 | 156 | 0.0 | 5.0 | 0.00 | 0.10 | 0.10 | 96 | 1008.6 |
| 20260510181813 | 52 | 217 | 0.0 | 4.0 | 0.00 | 0.10 | 0.10 | 96 | 1008.7 |
| 20260510181614 | 52 | 211 | 0.0 | 4.0 | 0.00 | 0.10 | 0.10 | 96 | 1008.5 |
| 20260510181409 | 52 | 233 | 0.0 | 3.0 | 0.00 | 0.10 | 0.10 | 96 | 1008.6 |
| 20260510181201 | 52 | 221 | 0.0 | 3.0 | 0.00 | 0.10 | 0.10 | 96 | 1008.6 |
| 20260510180953 | 52 | 206 | 0.0 | 3.0 | 0.00 | 0.10 | 0.10 | 96 | 1008.6 |
| 20260510180745 | 52 | 216 | 0.0 | 3.0 | 0.00 | 0.10 | 0.10 | 96 | 1008.6 |
| 20260510180540 | 52 | 221 | 0.0 | 3.0 | 0.00 | 0.10 | 0.10 | 96 | 1008.6 |
| 20260510180340 | 52 | 247 | 0.0 | 3.0 | 0.00 | 0.10 | 0.10 | 96 | 1008.6 |
| 20260510180139 | 52 | 209 | 0.0 | 3.0 | 0.00 | 0.10 | 0.10 | 96 | 1008.6 |
| 20260510175930 | 52 | 219 | 0.0 | 3.0 | 0.00 | 0.10 | 0.10 | 96 | 1008.5 |
| 20260510175725 | 52 | 221 | 0.0 | 3.0 | 0.00 | 0.10 | 0.10 | 96 | 1008.6 |
| 20260510175520 | 52 | 207 | 0.0 | 6.0 | 0.00 | 0.10 | 0.10 | 96 | 1008.5 |
| 20260510175320 | 53 | 186 | 0.0 | 6.0 | 0.00 | 0.10 | 0.10 | 95 | 1008.6 |
| 20260510175116 | 53 | 225 | 0.0 | 6.0 | 0.00 | 0.10 | 0.10 | 95 | 1008.6 |
| 20260510174558 | 53 | 223 | 1.0 | 6.0 | 0.00 | 0.10 | 0.10 | 95 | 1008.6 |
| 20260510174353 | 53 | 240 | 2.0 | 6.0 | 0.00 | 0.10 | 0.10 | 95 | 1008.6 |
| 20260510174148 | 53 | 236 | 2.0 | 6.0 | 0.00 | 0.10 | 0.10 | 94 | 1008.7 |
| 20260510173944 | 54 | 246 | 2.0 | 6.0 | 0.00 | 0.10 | 0.10 | 94 | 1008.6 |
| 20260510173745 | 54 | 259 | 2.0 | 6.0 | 0.00 | 0.10 | 0.10 | 94 | 1008.8 |
| 20260510173544 | 54 | 245 | 2.0 | 6.0 | 0.00 | 0.10 | 0.10 | 94 | 1008.8 |
| 20260510173026 | 55 | 241 | 2.0 | 4.0 | 0.00 | 0.10 | 0.10 | 93 | 1008.9 |
| 20260510172820 | 55 | 241 | 1.0 | 4.0 | 0.00 | 0.10 | 0.10 | 93 | 1008.9 |
| 20260510172256 | 55 | 243 | 2.0 | 4.0 | 0.00 | 0.10 | 0.10 | 93 | 1008.8 |
| 20260510171731 | 55 | 239 | 1.0 | 4.0 | 0.00 | 0.10 | 0.10 | 92 | 1008.6 |
| 20260510171210 | 55 | 231 | 0.0 | 3.0 | 0.00 | 0.10 | 0.10 | 93 | 1008.8 |
| 20260510171010 | 55 | 235 | 0.0 | 3.0 | 0.00 | 0.10 | 0.10 | 94 | 1008.6 |
| 20260510170806 | 55 | 236 | 1.0 | 3.0 | 0.00 | 0.10 | 0.10 | 94 | 1008.6 |
| 20260510170556 | 55 | 228 | 1.0 | 4.0 | 0.00 | 0.10 | 0.10 | 94 | 1008.6 |
| 20260510170349 | 55 | 236 | 1.0 | 4.0 | 0.00 | 0.10 | 0.10 | 94 | 1008.8 |
| 20260510170149 | 55 | 240 | 1.0 | 4.0 | 0.00 | 0.10 | 0.10 | 94 | 1008.8 |
| 20260510165622 | 55 | 241 | 1.0 | 4.0 | 0.00 | 0.10 | 0.10 | 95 | 1008.9 |
| 20260510165056 | 54 | 234 | 1.0 | 4.0 | 0.00 | 0.10 | 0.10 | 95 | 1009.0 |
| 20260510164535 | 54 | 240 | 0.0 | 3.0 | 0.00 | 0.10 | 0.10 | 96 | 1009.1 |
| 20260510164328 | 54 | 220 | 0.0 | 3.0 | 0.00 | 0.10 | 0.10 | 96 | 1009.1 |
| 20260510164126 | 54 | 229 | 0.0 | 3.0 | 0.00 | 0.10 | 0.10 | 96 | 1009.1 |
| 20260510163554 | 54 | 234 | 0.0 | 1.0 | 0.03 | 0.10 | 0.10 | 96 | 1009.1 |
| 20260510163349 | 54 | 218 | 0.0 | 1.0 | 0.03 | 0.10 | 0.10 | 97 | 1009.2 |
| 20260510163143 | 54 | 245 | 0.0 | 4.0 | 0.03 | 0.10 | 0.10 | 97 | 1009.0 |
| 20260510162940 | 53 | 141 | 0.0 | 4.0 | 0.04 | 0.10 | 0.10 | 97 | 1009.2 |
| 20260510162738 | 53 | 238 | 0.0 | 4.0 | 0.05 | 0.10 | 0.10 | 97 | 1009.3 |
| 20260510162538 | 53 | 227 | 0.0 | 4.0 | 0.07 | 0.10 | 0.10 | 97 | 1009.2 |
| 20260510161710 | 52 | 236 | 1.0 | 5.0 | 0.12 | 0.09 | 0.09 | 97 | 1009.4 |
| 20260510161147 | 52 | 222 | 1.0 | 9.0 | 0.05 | 0.08 | 0.08 | 97 | 1009.5 |
| 20260510160938 | 52 | 243 | 2.0 | 9.0 | 0.00 | 0.07 | 0.07 | 96 | 1009.6 |
| 20260510160735 | 52 | 229 | 3.0 | 9.0 | 0.00 | 0.07 | 0.07 | 96 | 1009.6 |
| 20260510160531 | 52 | 244 | 3.0 | 11.0 | 0.00 | 0.07 | 0.07 | 96 | 1009.7 |
| 20260510160325 | 52 | 241 | 4.0 | 11.0 | 0.00 | 0.07 | 0.07 | 96 | 1009.7 |
| 20260510160126 | 52 | 258 | 3.0 | 11.0 | 0.00 | 0.07 | 0.07 | 96 | 1009.7 |
| 20260510155924 | 52 | 217 | 3.0 | 11.0 | 0.00 | 0.07 | 0.07 | 96 | 1009.7 |
| 20260510155715 | 52 | 237 | 3.0 | 11.0 | 0.00 | 0.07 | 0.07 | 95 | 1009.7 |
| 20260510154141 | 53 | 244 | 3.0 | 8.0 | 0.00 | 0.07 | 0.07 | 94 | 1009.7 |
| 20260510153940 | 53 | 234 | 3.0 | 8.0 | 0.00 | 0.07 | 0.07 | 94 | 1009.7 |
| 20260510153731 | 54 | 236 | 2.0 | 7.0 | 0.00 | 0.07 | 0.07 | 94 | 1009.7 |
| 20260510153531 | 54 | 238 | 2.0 | 8.0 | 0.00 | 0.07 | 0.07 | 94 | 1009.7 |
| 20260510153322 | 54 | 239 | 2.0 | 8.0 | 0.00 | 0.07 | 0.07 | 95 | 1009.6 |
| 20260510153112 | 54 | 253 | 2.0 | 8.0 | 0.00 | 0.07 | 0.07 | 97 | 1009.7 |
| 20260510152906 | 54 | 283 | 2.0 | 8.0 | 0.00 | 0.07 | 0.07 | 97 | 1009.7 |
| 20260510152703 | 53 | 255 | 2.0 | 8.0 | 0.00 | 0.07 | 0.07 | 96 | 1009.7 |
| 20260510152500 | 53 | 248 | 3.0 | 10.0 | 0.00 | 0.07 | 0.07 | 96 | 1009.7 |
| 20260510152255 | 53 | 169 | 3.0 | 10.0 | 0.00 | 0.07 | 0.07 | 97 | 1009.8 |
| 20260510151733 | 52 | 249 | 5.0 | 10.0 | 0.00 | 0.07 | 0.07 | 95 | 1009.9 |
| 20260510151533 | 53 | 240 | 5.0 | 10.0 | 0.00 | 0.07 | 0.07 | 95 | 1009.9 |
| 20260510151330 | 53 | 238 | 5.0 | 10.0 | 0.00 | 0.07 | 0.07 | 95 | 1010.0 |
| 20260510151132 | 53 | 240 | 4.0 | 10.0 | 0.03 | 0.07 | 0.07 | 95 | 1010.0 |
| 20260510150925 | 53 | 235 | 3.0 | 10.0 | 0.03 | 0.07 | 0.07 | 95 | 1010.0 |
| 20260510150719 | 53 | 231 | 3.0 | 10.0 | 0.03 | 0.07 | 0.07 | 95 | 1009.9 |
| 20260510150510 | 53 | 237 | 2.0 | 7.0 | 0.03 | 0.07 | 0.07 | 97 | 1010.0 |
| 20260510150307 | 53 | 233 | 2.0 | 7.0 | 0.03 | 0.07 | 0.07 | 97 | 1010.0 |
| 20260510145749 | 52 | 229 | 4.0 | 10.0 | 0.03 | 0.07 | 0.07 | 96 | 1010.0 |
| 20260510145543 | 52 | 248 | 4.0 | 10.0 | 0.03 | 0.07 | 0.07 | 96 | 1010.0 |
| 20260510145333 | 52 | 224 | 4.0 | 10.0 | 0.03 | 0.06 | 0.06 | 96 | 1010.1 |
| 20260510145126 | 52 | 231 | 5.0 | 11.0 | 0.03 | 0.06 | 0.06 | 97 | 1010.2 |
| 20260510144926 | 52 | 266 | 5.0 | 11.0 | 0.03 | 0.06 | 0.06 | 97 | 1010.3 |
| 20260510144352 | 52 | 227 | 5.0 | 11.0 | 0.03 | 0.05 | 0.06 | 96 | 1010.2 |
| 20260510144145 | 53 | 262 | 5.0 | 11.0 | 0.00 | 0.05 | 0.05 | 96 | 1010.3 |
| 20260510143314 | 53 | 255 | 6.0 | 11.0 | 0.00 | 0.05 | 0.05 | 96 | 1010.4 |
| 20260510143112 | 53 | 235 | 6.0 | 11.0 | 0.00 | 0.04 | 0.05 | 96 | 1010.4 |
| 20260510142908 | 53 | 236 | 6.0 | 11.0 | 0.00 | 0.04 | 0.04 | 96 | 1010.4 |
| 20260510142703 | 53 | 246 | 6.0 | 11.0 | 0.00 | 0.04 | 0.04 | 96 | 1010.3 |
| 20260510142502 | 53 | 210 | 6.0 | 11.0 | 0.00 | 0.04 | 0.04 | 96 | 1010.4 |
| 20260510142259 | 53 | 248 | 6.0 | 11.0 | 0.00 | 0.04 | 0.04 | 96 | 1010.4 |
| 20260510142052 | 53 | 234 | 6.0 | 11.0 | 0.00 | 0.04 | 0.04 | 96 | 1010.3 |
| 20260510141845 | 53 | 230 | 6.0 | 11.0 | 0.00 | 0.04 | 0.04 | 96 | 1010.3 |
| 20260510141325 | 53 | 229 | 5.0 | 11.0 | 0.00 | 0.04 | 0.04 | 96 | 1010.3 |
| 20260510140758 | 53 | 245 | 6.0 | 10.0 | 0.00 | 0.04 | 0.04 | 96 | 1010.4 |
| 20260510140232 | 53 | 239 | 5.0 | 10.0 | 0.00 | 0.04 | 0.04 | 96 | 1010.4 |
| 20260510135706 | 53 | 232 | 4.0 | 9.0 | 0.00 | 0.03 | 0.04 | 96 | 1010.4 |
| 20260510135139 | 53 | 251 | 4.0 | 9.0 | 0.00 | 0.03 | 0.03 | 96 | 1010.4 |
| 20260510134617 | 53 | 259 | 4.0 | 8.0 | 0.00 | 0.03 | 0.03 | 96 | 1010.4 |
| 20260510134410 | 53 | 245 | 4.0 | 10.0 | 0.00 | 0.03 | 0.03 | 97 | 1010.4 |
| 20260510134201 | 53 | 250 | 5.0 | 10.0 | 0.00 | 0.03 | 0.03 | 97 | 1010.4 |
| 20260510133748 | 53 | 238 | 5.0 | 10.0 | 0.00 | 0.03 | 0.03 | 97 | 1010.4 |
| 20260510133542 | 53 | 245 | 5.0 | 10.0 | 0.00 | 0.03 | 0.03 | 97 | 1010.5 |
| 20260510133344 | 53 | 240 | 5.0 | 10.0 | 0.00 | 0.03 | 0.03 | 97 | 1010.5 |
| 20260510132934 | 53 | 233 | 5.0 | 10.0 | 0.00 | 0.03 | 0.03 | 98 | 1010.5 |
| 20260510132733 | 53 | 254 | 6.0 | 10.0 | 0.00 | 0.03 | 0.03 | 97 | 1010.5 |
| 20260510131848 | 53 | 245 | 6.0 | 12.0 | 0.00 | 0.03 | 0.03 | 97 | 1010.7 |
| 20260510131316 | 52 | 248 | 6.0 | 12.0 | 0.03 | 0.03 | 0.03 | 97 | 1010.6 |
| 20260510131107 | 53 | 251 | 6.0 | 12.0 | 0.03 | 0.03 | 0.03 | 97 | 1010.7 |
| 20260510130900 | 53 | 214 | 7.0 | 12.0 | 0.03 | 0.03 | 0.03 | 97 | 1010.7 |
| 20260510130656 | 53 | 219 | 7.0 | 12.0 | 0.03 | 0.03 | 0.03 | 97 | 1010.6 |
| 20260510130449 | 52 | 237 | 7.0 | 12.0 | 0.03 | 0.03 | 0.03 | 97 | 1010.7 |
| 20260510130249 | 52 | 208 | 7.0 | 12.0 | 0.03 | 0.03 | 0.03 | 97 | 1010.7 |
| 20260510125727 | 53 | 226 | 6.0 | 14.0 | 0.03 | 0.02 | 0.03 | 97 | 1010.8 |
| 20260510125312 | 53 | 227 | 7.0 | 14.0 | 0.03 | 0.02 | 0.02 | 96 | 1010.8 |
| 20260510125113 | 53 | 240 | 7.0 | 14.0 | 0.03 | 0.02 | 0.02 | 96 | 1010.7 |
| 20260510124912 | 53 | 236 | 8.0 | 14.0 | 0.03 | 0.02 | 0.02 | 96 | 1010.7 |
| 20260510124706 | 53 | 231 | 8.0 | 14.0 | 0.03 | 0.02 | 0.02 | 96 | 1010.7 |
| 20260510124459 | 53 | 239 | 8.0 | 14.0 | 0.03 | 0.02 | 0.02 | 96 | 1010.8 |
| 20260510124300 | 53 | 238 | 8.0 | 14.0 | 0.03 | 0.02 | 0.02 | 96 | 1010.7 |
| 20260510124049 | 53 | 252 | 7.0 | 14.0 | 0.03 | 0.02 | 0.02 | 96 | 1010.7 |
| 20260510123846 | 53 | 243 | 6.0 | 12.0 | 0.04 | 0.01 | 0.01 | 95 | 1010.8 |
| 20260510123640 | 53 | 256 | 5.0 | 12.0 | 0.05 | 0.01 | 0.01 | 95 | 1010.7 |
| 20260510122909 | 53 | 247 | 5.0 | 11.0 | 0.07 | 0.00 | 0.01 | 94 | 1010.6 |
| 20260510122451 | 54 | 252 | 6.0 | 11.0 | 0.00 | 0.00 | 0.00 | 93 | 1010.7 |
| 20260510122249 | 54 | 231 | 6.0 | 11.0 | 0.00 | 0.00 | 0.00 | 92 | 1010.7 |
| 20260510122038 | 54 | 256 | 6.0 | 12.0 | 0.00 | 0.00 | 0.00 | 92 | 1010.8 |
| 20260510121511 | 54 | 228 | 6.0 | 12.0 | 0.00 | 0.00 | 0.00 | 91 | 1010.7 |
| 20260510121307 | 55 | 231 | 6.0 | 12.0 | 0.00 | 0.00 | 0.00 | 91 | 1010.7 |
| 20260510121058 | 55 | 212 | 7.0 | 12.0 | 0.00 | 0.00 | 0.00 | 90 | 1010.6 |
| 20260510120855 | 55 | 245 | 7.0 | 12.0 | 0.00 | 0.00 | 0.00 | 90 | 1010.7 |
| 20260510120653 | 55 | 237 | 7.0 | 12.0 | 0.00 | 0.00 | 0.00 | 90 | 1010.6 |
| 20260510120451 | 56 | 256 | 7.0 | 12.0 | 0.00 | 0.00 | 0.00 | 89 | 1010.6 |
| 20260510120250 | 56 | 250 | 7.0 | 12.0 | 0.00 | 0.00 | 0.00 | 89 | 1010.5 |
| 20260510115723 | 56 | 253 | 6.0 | 11.0 | 0.00 | 0.00 | 0.00 | 86 | 1010.5 |
| 20260510115523 | 57 | 225 | 5.0 | 10.0 | 0.00 | 0.00 | 0.00 | 86 | 1010.4 |
| 20260510115321 | 57 | 238 | 5.0 | 10.0 | 0.00 | 0.00 | 0.00 | 86 | 1010.5 |
| 20260510115121 | 57 | 212 | 4.0 | 10.0 | 0.00 | 0.00 | 0.00 | 84 | 1010.5 |
| 20260510114915 | 57 | 239 | 3.0 | 7.0 | 0.00 | 0.00 | 0.00 | 84 | 1010.4 |
| 20260510114714 | 57 | 218 | 3.0 | 7.0 | 0.00 | 0.00 | 0.00 | 86 | 1010.4 |
| 20260510114513 | 57 | 235 | 3.0 | 7.0 | 0.00 | 0.00 | 0.00 | 84 | 1010.4 |
| 20260510114310 | 57 | 245 | 3.0 | 7.0 | 0.00 | 0.00 | 0.00 | 84 | 1010.3 |
| 20260510114102 | 58 | 231 | 3.0 | 7.0 | 0.00 | 0.00 | 0.00 | 85 | 1010.4 |
| 20260510113904 | 58 | 221 | 3.0 | 7.0 | 0.00 | 0.00 | 0.00 | 85 | 1010.3 |
| 20260510113654 | 58 | 252 | 3.0 | 7.0 | 0.00 | 0.00 | 0.00 | 84 | 1010.3 |
| 20260510113453 | 58 | 245 | 2.0 | 7.0 | 0.00 | 0.00 | 0.00 | 83 | 1010.4 |
| 20260510113246 | 58 | 261 | 2.0 | 7.0 | 0.00 | 0.00 | 0.00 | 84 | 1010.3 |
| 20260510113037 | 58 | 225 | 2.0 | 7.0 | 0.00 | 0.00 | 0.00 | 85 | 1010.4 |
| 20260510112834 | 58 | 235 | 3.0 | 7.0 | 0.00 | 0.00 | 0.00 | 83 | 1010.3 |
| 20260510112310 | 58 | 234 | 2.0 | 7.0 | 0.00 | 0.00 | 0.00 | 82 | 1010.3 |
| 20260510112107 | 58 | 267 | 2.0 | 7.0 | 0.00 | 0.00 | 0.00 | 81 | 1010.3 |
| 20260510111859 | 58 | 213 | 2.0 | 7.0 | 0.00 | 0.00 | 0.00 | 83 | 1010.3 |
| 20260510111654 | 58 | 228 | 3.0 | 7.0 | 0.00 | 0.00 | 0.00 | 82 | 1010.4 |
| 20260510111455 | 58 | 230 | 2.0 | 7.0 | 0.00 | 0.00 | 0.00 | 81 | 1010.4 |
| 20260510111252 | 58 | 223 | 2.0 | 7.0 | 0.00 | 0.00 | 0.00 | 82 | 1010.3 |
| 20260510110358 | 59 | 241 | 1.0 | 7.0 | 0.00 | 0.00 | 0.00 | 82 | 1010.4 |
| 20260510110157 | 59 | 240 | 1.0 | 7.0 | 0.00 | 0.00 | 0.00 | 82 | 1010.3 |
| 20260510105951 | 59 | 238 | 0.0 | 4.0 | 0.00 | 0.00 | 0.00 | 84 | 1010.4 |
| 20260510105421 | 59 | 325 | 1.0 | 0.0 | 0.00 | 0.00 | 0.00 | 84 | 1010.4 |
| 20260510105218 | 58 | 231 | 1.0 | 6.0 | 0.00 | 0.00 | 0.00 | 84 | 1010.4 |
| 20260510104652 | 58 | 304 | 1.0 | 6.0 | 0.00 | 0.00 | 0.00 | 82 | 1010.4 |
| 20260510104449 | 58 | 236 | 0.0 | 6.0 | 0.00 | 0.00 | 0.00 | 82 | 1010.5 |
| 20260510104243 | 58 | 241 | 0.0 | 6.0 | 0.00 | 0.00 | 0.00 | 84 | 1010.5 |
| 20260510103045 | 58 | 257 | 0.0 | 5.0 | 0.00 | 0.00 | 0.00 | 83 | 1010.5 |
| 20260510102527 | 58 | 286 | 0.0 | 0.0 | 0.00 | 0.00 | 0.00 | 83 | 1010.6 |
| 20260510102320 | 58 | 254 | 0.0 | 0.0 | 0.00 | 0.00 | 0.00 | 84 | 1010.6 |
| 20260510102112 | 58 | 253 | 0.0 | 4.0 | 0.00 | 0.00 | 0.00 | 84 | 1010.6 |
| 20260510101903 | 58 | 294 | 1.0 | 4.0 | 0.00 | 0.00 | 0.00 | 85 | 1010.5 |
| 20260510101331 | 58 | 265 | 0.0 | 4.0 | 0.00 | 0.00 | 0.00 | 84 | 1010.5 |
| 20260510101132 | 58 | 226 | 0.0 | 4.0 | 0.00 | 0.00 | 0.00 | 84 | 1010.6 |
| 20260510100931 | 58 | 224 | 0.0 | 4.0 | 0.00 | 0.00 | 0.00 | 83 | 1010.6 |
| 20260510100416 | 58 | 236 | 0.0 | 2.0 | 0.00 | 0.00 | 0.00 | 83 | 1010.5 |
| 20260510100213 | 58 | 252 | 0.0 | 2.0 | 0.00 | 0.00 | 0.00 | 83 | 1010.6 |
| 20260510100003 | 58 | 290 | 0.0 | 2.0 | 0.00 | 0.00 | 0.00 | 83 | 1010.6 |
| 20260510095759 | 58 | 255 | 0.0 | 2.0 | 0.00 | 0.00 | 0.00 | 83 | 1010.5 |
| 20260510095556 | 58 | 239 | 0.0 | 2.0 | 0.00 | 0.00 | 0.00 | 83 | 1010.5 |
| 20260510095350 | 58 | 236 | 0.0 | 1.0 | 0.00 | 0.00 | 0.00 | 83 | 1010.6 |
| 20260510095140 | 58 | 255 | 0.0 | 1.0 | 0.00 | 0.00 | 0.00 | 84 | 1010.6 |
| 20260510094941 | 58 | 288 | 0.0 | 2.0 | 0.00 | 0.00 | 0.00 | 83 | 1010.6 |
| 20260510094735 | 58 | 309 | 0.0 | 2.0 | 0.00 | 0.00 | 0.00 | 82 | 1010.6 |
| 20260510094533 | 58 | 297 | 0.0 | 2.0 | 0.00 | 0.00 | 0.00 | 83 | 1010.6 |
| 20260510094332 | 58 | 236 | 0.0 | 3.0 | 0.00 | 0.00 | 0.00 | 83 | 1010.6 |
| 20260510094125 | 58 | 226 | 0.0 | 3.0 | 0.00 | 0.00 | 0.00 | 83 | 1010.6 |
| 20260510093916 | 58 | 237 | 0.0 | 3.0 | 0.00 | 0.00 | 0.00 | 83 | 1010.5 |
| 20260510093352 | 58 | 240 | 0.0 | 0.0 | 0.00 | 0.00 | 0.00 | 85 | 1010.7 |
| 20260510093147 | 57 | 231 | 0.0 | 0.0 | 0.00 | 0.00 | 0.00 | 83 | 1010.8 |
| 20260510092941 | 57 | 241 | 0.0 | 3.0 | 0.00 | 0.00 | 0.00 | 82 | 1010.8 |
| 20260510092742 | 58 | 265 | 0.0 | 2.0 | 0.00 | 0.00 | 0.00 | 84 | 1010.7 |
| 20260510092538 | 57 | 226 | 0.0 | 1.0 | 0.00 | 0.00 | 0.00 | 83 | 1010.7 |
| 20260510092332 | 57 | 252 | 0.0 | 1.0 | 0.00 | 0.00 | 0.00 | 84 | 1010.7 |
| 20260510092126 | 57 | 229 | 0.0 | 0.0 | 0.00 | 0.00 | 0.00 | 84 | 1010.7 |
| 20260510091927 | 57 | 229 | 0.0 | 0.0 | 0.00 | 0.00 | 0.00 | 83 | 1010.7 |
| 20260510091721 | 57 | 228 | 0.0 | 0.0 | 0.00 | 0.00 | 0.00 | 84 | 1010.8 |
| 20260510091513 | 57 | 229 | 0.0 | 3.0 | 0.00 | 0.00 | 0.00 | 83 | 1010.7 |
| 20260510091309 | 57 | 245 | 0.0 | 3.0 | 0.00 | 0.00 | 0.00 | 84 | 1010.9 |
| 20260510090735 | 56 | 238 | 0.0 | 3.0 | 0.00 | 0.00 | 0.00 | 84 | 1010.7 |
| 20260510090532 | 56 | 229 | 0.0 | 3.0 | 0.00 | 0.00 | 0.00 | 84 | 1010.8 |
| 20260510090325 | 56 | 229 | 0.0 | 3.0 | 0.00 | 0.00 | 0.00 | 85 | 1010.8 |
| 20260510085809 | 56 | 309 | 0.0 | 3.0 | 0.00 | 0.00 | 0.00 | 83 | 1010.8 |
| 20260510085607 | 56 | 231 | 1.0 | 3.0 | 0.00 | 0.00 | 0.00 | 83 | 1010.8 |
| 20260510085403 | 56 | 242 | 0.0 | 3.0 | 0.00 | 0.00 | 0.00 | 84 | 1010.8 |
| 20260510085153 | 56 | 290 | 0.0 | 4.0 | 0.00 | 0.00 | 0.00 | 84 | 1010.8 |
| 20260510084951 | 56 | 242 | 0.0 | 4.0 | 0.00 | 0.00 | 0.00 | 83 | 1010.9 |
| 20260510084741 | 56 | 208 | 0.0 | 4.0 | 0.00 | 0.00 | 0.00 | 84 | 1010.9 |
| 20260510084540 | 56 | 291 | 0.0 | 4.0 | 0.00 | 0.00 | 0.00 | 84 | 1010.8 |
| 20260510084333 | 56 | 228 | 0.0 | 4.0 | 0.00 | 0.00 | 0.00 | 86 | 1010.9 |
| 20260510084132 | 56 | 236 | 1.0 | 4.0 | 0.00 | 0.00 | 0.00 | 86 | 1010.8 |
| 20260510083930 | 56 | 231 | 1.0 | 4.0 | 0.00 | 0.00 | 0.00 | 85 | 1010.8 |
| 20260510083723 | 56 | 231 | 1.0 | 4.0 | 0.00 | 0.00 | 0.00 | 85 | 1010.9 |
| 20260510083204 | 56 | 233 | 1.0 | 4.0 | 0.00 | 0.00 | 0.00 | 86 | 1010.9 |
| 20260510083002 | 56 | 242 | 1.0 | 4.0 | 0.00 | 0.00 | 0.00 | 87 | 1010.9 |
| 20260510082758 | 56 | 240 | 1.0 | 6.0 | 0.00 | 0.00 | 0.00 | 87 | 1010.8 |
| 20260510082550 | 55 | 235 | 2.0 | 6.0 | 0.00 | 0.00 | 0.00 | 87 | 1010.9 |
| 20260510082348 | 55 | 239 | 2.0 | 6.0 | 0.00 | 0.00 | 0.00 | 88 | 1010.9 |
| 20260510082145 | 55 | 240 | 2.0 | 6.0 | 0.00 | 0.00 | 0.00 | 87 | 1010.9 |
| 20260510081943 | 55 | 240 | 3.0 | 6.0 | 0.00 | 0.00 | 0.00 | 86 | 1010.9 |
| 20260510081736 | 55 | 238 | 3.0 | 6.0 | 0.00 | 0.00 | 0.00 | 87 | 1010.9 |
| 20260510081532 | 55 | 236 | 3.0 | 6.0 | 0.00 | 0.00 | 0.00 | 87 | 1010.9 |
| 20260510081333 | 55 | 236 | 2.0 | 6.0 | 0.00 | 0.00 | 0.00 | 86 | 1010.9 |
| 20260510080808 | 55 | 236 | 1.0 | 5.0 | 0.00 | 0.00 | 0.00 | 86 | 1010.9 |
| 20260510080601 | 55 | 238 | 1.0 | 7.0 | 0.00 | 0.00 | 0.00 | 87 | 1011.0 |
| 20260510080400 | 55 | 240 | 2.0 | 7.0 | 0.00 | 0.00 | 0.00 | 87 | 1010.9 |
| 20260510080200 | 55 | 234 | 2.0 | 7.0 | 0.00 | 0.00 | 0.00 | 88 | 1010.9 |
| 20260510075628 | 55 | 233 | 3.0 | 7.0 | 0.00 | 0.00 | 0.00 | 88 | 1011.0 |
| 20260510075418 | 55 | 248 | 3.0 | 7.0 | 0.00 | 0.00 | 0.00 | 89 | 1010.9 |
| 20260510074847 | 54 | 239 | 3.0 | 7.0 | 0.00 | 0.00 | 0.00 | 88 | 1011.0 |
| 20260510074318 | 54 | 246 | 2.0 | 6.0 | 0.00 | 0.00 | 0.00 | 89 | 1011.1 |
| 20260510074114 | 54 | 237 | 2.0 | 7.0 | 0.00 | 0.00 | 0.00 | 89 | 1011.2 |
| 20260510073911 | 54 | 241 | 2.0 | 7.0 | 0.00 | 0.00 | 0.00 | 90 | 1011.1 |
| 20260510073712 | 54 | 238 | 2.0 | 7.0 | 0.00 | 0.00 | 0.00 | 89 | 1011.0 |
| 20260510073507 | 54 | 245 | 3.0 | 7.0 | 0.00 | 0.00 | 0.00 | 90 | 1011.1 |
| 20260510073259 | 54 | 228 | 3.0 | 7.0 | 0.00 | 0.00 | 0.00 | 89 | 1011.1 |
| 20260510073051 | 54 | 236 | 4.0 | 8.0 | 0.00 | 0.00 | 0.00 | 90 | 1011.1 |
| 20260510072526 | 54 | 240 | 4.0 | 8.0 | 0.00 | 0.00 | 0.00 | 89 | 1011.0 |
| 20260510072327 | 54 | 236 | 3.0 | 8.0 | 0.00 | 0.00 | 0.00 | 89 | 1011.0 |
| 20260510072127 | 54 | 234 | 3.0 | 8.0 | 0.00 | 0.00 | 0.00 | 90 | 1011.0 |
| 20260510071921 | 54 | 240 | 3.0 | 8.0 | 0.00 | 0.00 | 0.00 | 89 | 1011.1 |
| 20260510071714 | 54 | 227 | 3.0 | 8.0 | 0.00 | 0.00 | 0.00 | 89 | 1011.1 |
| 20260510071509 | 54 | 243 | 3.0 | 8.0 | 0.00 | 0.00 | 0.00 | 89 | 1011.2 |
| 20260510071309 | 54 | 250 | 3.0 | 8.0 | 0.00 | 0.00 | 0.00 | 89 | 1011.1 |
| 20260510070735 | 54 | 215 | 4.0 | 8.0 | 0.00 | 0.00 | 0.00 | 89 | 1011.2 |
| 20260510070207 | 54 | 231 | 3.0 | 8.0 | 0.00 | 0.00 | 0.00 | 89 | 1011.2 |
| 20260510070000 | 54 | 233 | 3.0 | 8.0 | 0.00 | 0.00 | 0.00 | 89 | 1011.2 |
| 20260510065751 | 54 | 252 | 3.0 | 7.0 | 0.00 | 0.00 | 0.00 | 89 | 1011.2 |
| 20260510065542 | 54 | 238 | 3.0 | 7.0 | 0.00 | 0.00 | 0.00 | 89 | 1011.2 |
| 20260510065332 | 54 | 219 | 3.0 | 7.0 | 0.00 | 0.00 | 0.00 | 89 | 1011.2 |
| 20260510065130 | 54 | 240 | 3.0 | 7.0 | 0.00 | 0.00 | 0.00 | 89 | 1011.1 |
| 20260510064920 | 54 | 255 | 3.0 | 9.0 | 0.00 | 0.00 | 0.00 | 89 | 1011.0 |
| 20260510064711 | 54 | 257 | 3.0 | 9.0 | 0.00 | 0.00 | 0.00 | 89 | 1011.1 |
| 20260510064500 | 54 | 235 | 3.0 | 9.0 | 0.00 | 0.00 | 0.00 | 89 | 1011.1 |
| 20260510064301 | 54 | 243 | 4.0 | 9.0 | 0.00 | 0.00 | 0.00 | 89 | 1011.1 |
| 20260510064054 | 54 | 250 | 4.0 | 9.0 | 0.00 | 0.00 | 0.00 | 89 | 1011.1 |
| 20260510063849 | 54 | 277 | 4.0 | 9.0 | 0.00 | 0.00 | 0.00 | 88 | 1011.2 |
| 20260510063644 | 54 | 237 | 4.0 | 9.0 | 0.00 | 0.00 | 0.00 | 88 | 1011.0 |
| 20260510063436 | 54 | 200 | 4.0 | 9.0 | 0.00 | 0.00 | 0.00 | 88 | 1011.1 |
| 20260510063232 | 54 | 244 | 4.0 | 9.0 | 0.00 | 0.00 | 0.00 | 88 | 1011.1 |
| 20260510062718 | 54 | 232 | 4.0 | 9.0 | 0.00 | 0.00 | 0.00 | 88 | 1011.0 |
| 20260510062518 | 54 | 233 | 4.0 | 9.0 | 0.00 | 0.00 | 0.00 | 88 | 1011.0 |
| 20260510062308 | 54 | 212 | 4.0 | 9.0 | 0.00 | 0.00 | 0.00 | 88 | 1010.9 |
| 20260510062106 | 54 | 248 | 3.0 | 9.0 | 0.00 | 0.00 | 0.00 | 88 | 1010.9 |
| 20260510061902 | 54 | 234 | 4.0 | 9.0 | 0.00 | 0.00 | 0.00 | 88 | 1011.0 |
| 20260510061655 | 54 | 254 | 4.0 | 8.0 | 0.00 | 0.00 | 0.00 | 88 | 1011.0 |
| 20260510061131 | 54 | 252 | 5.0 | 10.0 | 0.00 | 0.00 | 0.00 | 87 | 1010.8 |
| 20260510060559 | 54 | 224 | 5.0 | 10.0 | 0.00 | 0.00 | 0.00 | 86 | 1010.6 |
| 20260510060037 | 54 | 239 | 5.0 | 13.0 | 0.00 | 0.00 | 0.00 | 87 | 1010.7 |
| 20260510055838 | 54 | 236 | 6.0 | 13.0 | 0.00 | 0.00 | 0.00 | 87 | 1010.8 |
| 20260510055632 | 54 | 245 | 6.0 | 13.0 | 0.00 | 0.00 | 0.00 | 86 | 1010.7 |
| 20260510055114 | 54 | 245 | 7.0 | 13.0 | 0.00 | 0.00 | 0.00 | 86 | 1010.6 |
| 20260510054219 | 53 | 227 | 6.0 | 11.0 | 0.00 | 0.00 | 0.00 | 86 | 1010.6 |
| 20260510054018 | 53 | 207 | 6.0 | 10.0 | 0.00 | 0.00 | 0.00 | 86 | 1010.7 |
| 20260510053807 | 53 | 210 | 5.0 | 10.0 | 0.00 | 0.00 | 0.00 | 85 | 1010.7 |
| 20260510053557 | 53 | 238 | 5.0 | 10.0 | 0.00 | 0.00 | 0.00 | 85 | 1010.7 |
| 20260510053352 | 53 | 240 | 5.0 | 9.0 | 0.00 | 0.00 | 0.00 | 85 | 1010.7 |
| 20260510052825 | 54 | 231 | 4.0 | 9.0 | 0.00 | 0.00 | 0.00 | 83 | 1010.7 |
| 20260510052619 | 54 | 227 | 3.0 | 8.0 | 0.00 | 0.00 | 0.00 | 83 | 1010.7 |
| 20260510052419 | 54 | 216 | 3.0 | 8.0 | 0.00 | 0.00 | 0.00 | 83 | 1010.9 |
| 20260510052211 | 54 | 248 | 3.0 | 7.0 | 0.00 | 0.00 | 0.00 | 83 | 1010.9 |
| 20260510051653 | 54 | 241 | 2.0 | 7.0 | 0.00 | 0.00 | 0.00 | 82 | 1010.8 |
| 20260510051449 | 54 | 239 | 1.0 | 5.0 | 0.00 | 0.00 | 0.00 | 83 | 1010.9 |
| 20260510051249 | 54 | 232 | 1.0 | 4.0 | 0.00 | 0.00 | 0.00 | 84 | 1010.9 |
| 20260510051041 | 54 | 233 | 1.0 | 3.0 | 0.00 | 0.00 | 0.00 | 84 | 1010.9 |
| 20260510050831 | 54 | 237 | 1.0 | 3.0 | 0.00 | 0.00 | 0.00 | 84 | 1010.9 |
| 20260510050625 | 54 | 238 | 1.0 | 3.0 | 0.00 | 0.00 | 0.00 | 84 | 1010.9 |
| 20260510050414 | 54 | 240 | 1.0 | 3.0 | 0.00 | 0.00 | 0.00 | 84 | 1010.9 |
| 20260510050212 | 54 | 231 | 0.0 | 3.0 | 0.00 | 0.00 | 0.00 | 84 | 1011.0 |
| 20260510050005 | 54 | 230 | 0.0 | 2.0 | 0.00 | 0.00 | 0.00 | 84 | 1010.9 |
| 20260510045759 | 54 | 239 | 0.0 | 2.0 | 0.00 | 0.00 | 0.00 | 83 | 1010.9 |
| 20260510045234 | 54 | 236 | 0.0 | 2.0 | 0.00 | 0.00 | 0.00 | 83 | 1010.8 |
| 20260510045034 | 54 | 238 | 0.0 | 2.0 | 0.00 | 0.00 | 0.00 | 83 | 1010.8 |
| 20260510044831 | 54 | 240 | 0.0 | 0.0 | 0.00 | 0.00 | 0.00 | 82 | 1010.8 |
| 20260510044621 | 54 | 241 | 0.0 | 0.0 | 0.00 | 0.00 | 0.00 | 82 | 1010.7 |
| 20260510044411 | 54 | 233 | 0.0 | 0.0 | 0.00 | 0.00 | 0.00 | 82 | 1010.6 |
| 20260510044205 | 54 | 238 | 0.0 | 1.0 | 0.00 | 0.00 | 0.00 | 82 | 1010.6 |
| 20260510044004 | 54 | 234 | 0.0 | 1.0 | 0.00 | 0.00 | 0.00 | 82 | 1010.6 |
| 20260510043759 | 54 | 128 | 0.0 | 0.0 | 0.00 | 0.00 | 0.00 | 82 | 1010.6 |
| 20260510043548 | 53 | 103 | 0.0 | 0.0 | 0.00 | 0.00 | 0.00 | 82 | 1010.6 |
| 20260510043026 | 53 | 110 | 1.0 | 4.0 | 0.00 | 0.00 | 0.00 | 83 | 1010.6 |
| 20260510042826 | 53 | 118 | 2.0 | 4.0 | 0.00 | 0.00 | 0.00 | 83 | 1010.6 |
| 20260510042622 | 53 | 111 | 2.0 | 4.0 | 0.00 | 0.00 | 0.00 | 83 | 1010.6 |
| 20260510042412 | 53 | 114 | 2.0 | 5.0 | 0.00 | 0.00 | 0.00 | 84 | 1010.6 |
| 20260510042210 | 53 | 118 | 2.0 | 5.0 | 0.00 | 0.00 | 0.00 | 84 | 1010.7 |
| 20260510042001 | 53 | 95 | 2.0 | 5.0 | 0.00 | 0.00 | 0.00 | 84 | 1010.7 |
| 20260510041759 | 52 | 115 | 2.0 | 5.0 | 0.00 | 0.00 | 0.00 | 84 | 1010.7 |
| 20260510041235 | 52 | 105 | 2.0 | 5.0 | 0.00 | 0.00 | 0.00 | 84 | 1010.7 |
| 20260510040718 | 53 | 99 | 0.0 | 5.0 | 0.00 | 0.00 | 0.00 | 83 | 1010.7 |
| 20260510040200 | 53 | 122 | 0.0 | 4.0 | 0.00 | 0.00 | 0.00 | 83 | 1010.6 |
| 20260510035955 | 53 | 96 | 0.0 | 4.0 | 0.00 | 0.00 | 0.00 | 84 | 1010.7 |
| 20260510035748 | 53 | 146 | 1.0 | 4.0 | 0.00 | 0.00 | 0.00 | 83 | 1010.7 |
| 20260510035547 | 53 | 146 | 1.0 | 4.0 | 0.00 | 0.00 | 0.00 | 83 | 1010.8 |
| 20260510035346 | 53 | 146 | 1.0 | 4.0 | 0.00 | 0.00 | 0.00 | 83 | 1010.8 |
| 20260510035137 | 53 | 110 | 1.0 | 4.0 | 0.00 | 0.00 | 0.00 | 83 | 1010.8 |
| 20260510034601 | 54 | 116 | 0.0 | 1.0 | 0.00 | 0.00 | 0.00 | 82 | 1010.8 |
| 20260510034047 | 53 | 111 | 0.0 | 0.0 | 0.00 | 0.00 | 0.00 | 82 | 1010.7 |
| 20260510033844 | 53 | 111 | 0.0 | 0.0 | 0.00 | 0.00 | 0.00 | 83 | 1010.7 |
| 20260510033637 | 53 | 111 | 0.0 | 3.0 | 0.00 | 0.00 | 0.00 | 83 | 1010.8 |
| 20260510033436 | 53 | 122 | 0.0 | 3.0 | 0.00 | 0.00 | 0.00 | 83 | 1010.9 |
| 20260510033234 | 53 | 120 | 1.0 | 3.0 | 0.00 | 0.00 | 0.00 | 83 | 1010.9 |
| 20260510033024 | 53 | 118 | 1.0 | 3.0 | 0.00 | 0.00 | 0.00 | 83 | 1010.8 |
| 20260510032814 | 53 | 103 | 1.0 | 3.0 | 0.00 | 0.00 | 0.00 | 83 | 1010.8 |
| 20260510032613 | 53 | 108 | 1.0 | 3.0 | 0.00 | 0.00 | 0.00 | 83 | 1010.9 |
| 20260510032047 | 53 | 124 | 1.0 | 5.0 | 0.00 | 0.00 | 0.00 | 84 | 1010.9 |
| 20260510031846 | 52 | 115 | 2.0 | 5.0 | 0.00 | 0.00 | 0.00 | 84 | 1010.8 |
| 20260510031640 | 52 | 117 | 2.0 | 5.0 | 0.00 | 0.00 | 0.00 | 84 | 1010.9 |
| 20260510031435 | 52 | 115 | 3.0 | 5.0 | 0.00 | 0.00 | 0.00 | 84 | 1010.9 |
| 20260510031236 | 53 | 111 | 3.0 | 5.0 | 0.00 | 0.00 | 0.00 | 84 | 1010.9 |
| 20260510031029 | 53 | 107 | 3.0 | 5.0 | 0.00 | 0.00 | 0.00 | 84 | 1010.9 |
| 20260510030828 | 53 | 95 | 3.0 | 5.0 | 0.00 | 0.00 | 0.00 | 84 | 1010.9 |
| 20260510030628 | 53 | 122 | 3.0 | 5.0 | 0.00 | 0.00 | 0.00 | 84 | 1011.0 |
| 20260510030429 | 53 | 86 | 2.0 | 5.0 | 0.00 | 0.00 | 0.00 | 83 | 1010.9 |
| 20260510030226 | 53 | 104 | 2.0 | 5.0 | 0.00 | 0.00 | 0.00 | 83 | 1011.0 |
| 20260510030015 | 53 | 115 | 2.0 | 5.0 | 0.00 | 0.00 | 0.00 | 84 | 1011.0 |
| 20260510025813 | 53 | 136 | 2.0 | 5.0 | 0.00 | 0.00 | 0.00 | 84 | 1010.9 |
| 20260510025614 | 53 | 131 | 2.0 | 5.0 | 0.00 | 0.00 | 0.00 | 84 | 1010.9 |
| 20260510025410 | 53 | 120 | 2.0 | 5.0 | 0.00 | 0.00 | 0.00 | 85 | 1010.9 |
| 20260510025201 | 52 | 104 | 2.0 | 5.0 | 0.00 | 0.00 | 0.00 | 85 | 1011.0 |
| 20260510024955 | 52 | 103 | 2.0 | 5.0 | 0.00 | 0.00 | 0.00 | 86 | 1011.1 |
| 20260510024752 | 52 | 113 | 2.0 | 5.0 | 0.00 | 0.00 | 0.00 | 86 | 1011.0 |
| 20260510024542 | 52 | 89 | 2.0 | 5.0 | 0.00 | 0.00 | 0.00 | 86 | 1011.0 |
| 20260510024342 | 52 | 105 | 2.0 | 5.0 | 0.00 | 0.00 | 0.00 | 86 | 1011.0 |
| 20260510024142 | 52 | 94 | 2.0 | 5.0 | 0.00 | 0.00 | 0.00 | 85 | 1011.0 |
| 20260510023933 | 52 | 89 | 3.0 | 5.0 | 0.00 | 0.00 | 0.00 | 85 | 1010.9 |
| 20260510023722 | 52 | 110 | 2.0 | 5.0 | 0.00 | 0.00 | 0.00 | 85 | 1011.0 |
| 20260510023518 | 52 | 100 | 1.0 | 5.0 | 0.00 | 0.00 | 0.00 | 85 | 1010.9 |
| 20260510022950 | 53 | 124 | 2.0 | 6.0 | 0.00 | 0.00 | 0.00 | 84 | 1010.8 |
| 20260510022750 | 52 | 101 | 2.0 | 6.0 | 0.00 | 0.00 | 0.00 | 85 | 1010.9 |
| 20260510022544 | 52 | 106 | 3.0 | 6.0 | 0.00 | 0.00 | 0.00 | 85 | 1010.9 |
| 20260510022337 | 52 | 136 | 3.0 | 6.0 | 0.00 | 0.00 | 0.00 | 85 | 1010.9 |
| 20260510021817 | 52 | 124 | 3.0 | 6.0 | 0.00 | 0.00 | 0.00 | 85 | 1011.1 |
| 20260510021610 | 53 | 117 | 3.0 | 6.0 | 0.00 | 0.00 | 0.00 | 85 | 1011.1 |
| 20260510021404 | 53 | 115 | 3.0 | 6.0 | 0.00 | 0.00 | 0.00 | 85 | 1011.0 |
| 20260510021157 | 52 | 108 | 3.0 | 6.0 | 0.00 | 0.00 | 0.00 | 85 | 1011.1 |
| 20260510020952 | 53 | 137 | 2.0 | 5.0 | 0.00 | 0.00 | 0.00 | 85 | 1011.1 |
| 20260510020746 | 53 | 116 | 1.0 | 5.0 | 0.00 | 0.00 | 0.00 | 84 | 1011.2 |
| 20260510020541 | 54 | 119 | 0.0 | 5.0 | 0.00 | 0.00 | 0.00 | 83 | 1011.2 |
| 20260510020340 | 54 | 88 | 0.0 | 3.0 | 0.00 | 0.00 | 0.00 | 82 | 1011.2 |
| 20260510020138 | 54 | 122 | 0.0 | 1.0 | 0.00 | 0.00 | 0.00 | 82 | 1011.1 |
| 20260510015934 | 54 | 127 | 0.0 | 6.0 | 0.00 | 0.00 | 0.00 | 82 | 1011.1 |
| 20260510015729 | 54 | 127 | 1.0 | 6.0 | 0.00 | 0.00 | 0.00 | 82 | 1011.2 |
| 20260510015523 | 54 | 117 | 2.0 | 6.0 | 0.00 | 0.00 | 0.00 | 83 | 1011.2 |
| 20260510015320 | 54 | 107 | 3.0 | 6.0 | 0.00 | 0.00 | 0.00 | 83 | 1011.1 |
| 20260510015111 | 54 | 124 | 3.0 | 6.0 | 0.00 | 0.00 | 0.00 | 83 | 1011.2 |
| 20260510014554 | 53 | 127 | 3.0 | 6.0 | 0.00 | 0.00 | 0.00 | 85 | 1011.1 |
| 20260510014348 | 53 | 99 | 3.0 | 6.0 | 0.00 | 0.00 | 0.00 | 85 | 1011.1 |
| 20260510014148 | 53 | 120 | 3.0 | 6.0 | 0.00 | 0.00 | 0.00 | 85 | 1011.2 |
| 20260510013948 | 53 | 111 | 3.0 | 6.0 | 0.00 | 0.00 | 0.00 | 85 | 1011.1 |
| 20260510013746 | 53 | 131 | 2.0 | 6.0 | 0.00 | 0.00 | 0.00 | 85 | 1011.2 |
| 20260510013544 | 53 | 124 | 2.0 | 6.0 | 0.00 | 0.00 | 0.00 | 85 | 1011.2 |
| 20260510013338 | 53 | 93 | 3.0 | 6.0 | 0.00 | 0.00 | 0.00 | 84 | 1011.2 |
| 20260510012820 | 53 | 126 | 3.0 | 6.0 | 0.00 | 0.00 | 0.00 | 85 | 1011.3 |
| 20260510012253 | 53 | 98 | 4.0 | 6.0 | 0.00 | 0.00 | 0.00 | 86 | 1011.3 |
| 20260510012043 | 53 | 133 | 4.0 | 6.0 | 0.00 | 0.00 | 0.00 | 86 | 1011.3 |
| 20260510011834 | 53 | 109 | 3.0 | 6.0 | 0.00 | 0.00 | 0.00 | 86 | 1011.3 |
| 20260510011631 | 52 | 98 | 3.0 | 6.0 | 0.00 | 0.00 | 0.00 | 86 | 1011.3 |
| 20260510011427 | 53 | 131 | 4.0 | 6.0 | 0.00 | 0.00 | 0.00 | 86 | 1011.4 |
| 20260510011225 | 53 | 110 | 3.0 | 6.0 | 0.00 | 0.00 | 0.00 | 85 | 1011.3 |
| 20260510011019 | 53 | 101 | 3.0 | 6.0 | 0.00 | 0.00 | 0.00 | 85 | 1011.4 |
| 20260510010814 | 53 | 100 | 3.0 | 6.0 | 0.00 | 0.00 | 0.00 | 85 | 1011.4 |
| 20260510010611 | 53 | 114 | 3.0 | 6.0 | 0.00 | 0.00 | 0.00 | 85 | 1011.4 |
| 20260510010401 | 53 | 112 | 2.0 | 5.0 | 0.00 | 0.00 | 0.00 | 84 | 1011.4 |
| 20260510010159 | 53 | 124 | 2.0 | 5.0 | 0.00 | 0.00 | 0.00 | 84 | 1011.4 |
| 20260510005952 | 53 | 110 | 2.0 | 5.0 | 0.00 | 0.00 | 0.00 | 84 | 1011.4 |
| 20260510005747 | 53 | 86 | 2.0 | 5.0 | 0.00 | 0.00 | 0.00 | 84 | 1011.4 |
| 20260510005544 | 53 | 103 | 3.0 | 5.0 | 0.00 | 0.00 | 0.00 | 84 | 1011.4 |
| 20260510005341 | 53 | 117 | 3.0 | 5.0 | 0.00 | 0.00 | 0.00 | 84 | 1011.3 |
| 20260510005132 | 53 | 92 | 3.0 | 5.0 | 0.00 | 0.00 | 0.00 | 84 | 1011.4 |
| 20260510004928 | 53 | 136 | 3.0 | 5.0 | 0.00 | 0.00 | 0.00 | 84 | 1011.4 |
| 20260510004723 | 53 | 121 | 3.0 | 6.0 | 0.00 | 0.00 | 0.00 | 83 | 1011.4 |
| 20260510004513 | 54 | 136 | 3.0 | 6.0 | 0.00 | 0.00 | 0.00 | 83 | 1011.5 |
| 20260510003945 | 54 | 121 | 2.0 | 6.0 | 0.00 | 0.00 | 0.00 | 83 | 1011.5 |
| 20260510003745 | 54 | 121 | 2.0 | 6.0 | 0.00 | 0.00 | 0.00 | 83 | 1011.5 |
| 20260510003537 | 54 | 120 | 3.0 | 6.0 | 0.00 | 0.00 | 0.00 | 83 | 1011.4 |
| 20260510003333 | 54 | 107 | 3.0 | 6.0 | 0.00 | 0.00 | 0.00 | 84 | 1011.6 |
| 20260510003132 | 54 | 123 | 3.0 | 6.0 | 0.00 | 0.00 | 0.00 | 84 | 1011.7 |
| 20260510002930 | 53 | 103 | 3.0 | 6.0 | 0.00 | 0.00 | 0.00 | 84 | 1011.5 |
| 20260510002727 | 54 | 117 | 3.0 | 5.0 | 0.00 | 0.00 | 0.00 | 84 | 1011.6 |
| 20260510002525 | 54 | 113 | 2.0 | 5.0 | 0.00 | 0.00 | 0.00 | 84 | 1011.6 |
| 20260510002325 | 54 | 98 | 2.0 | 5.0 | 0.00 | 0.00 | 0.00 | 84 | 1011.7 |
| 20260510002118 | 54 | 123 | 1.0 | 5.0 | 0.00 | 0.00 | 0.00 | 83 | 1011.7 |
| 20260510001916 | 54 | 123 | 0.0 | 3.0 | 0.00 | 0.00 | 0.00 | 82 | 1011.7 |
| 20260510001347 | 55 | 118 | 0.0 | 2.0 | 0.00 | 0.00 | 0.00 | 80 | 1011.8 |
| 20260510001142 | 56 | 114 | 0.0 | 1.0 | 0.00 | 0.00 | 0.00 | 79 | 1011.7 |
| 20260510000618 | 56 | 120 | 0.0 | 0.0 | 0.00 | 0.00 | 0.00 | 78 | 1011.8 |
| 20260510000413 | 56 | 121 | 0.0 | 0.0 | 0.00 | 0.00 | 0.00 | 78 | 1011.8 |
| 20260510000205 | 56 | 120 | 0.0 | 0.0 | 0.00 | 0.00 | 0.00 | 78 | 1012.0 |
| 20260509235959 | 56 | 120 | 0.0 | 0.0 | 0.00 | 0.00 | 0.00 | 78 | 1012.0 |
| 20260509235749 | 56 | 120 | 0.0 | 0.0 | 0.00 | 0.00 | 0.00 | 78 | 1012.0 |
| 20260509235544 | 56 | 120 | 0.0 | 0.0 | 0.00 | 0.00 | 0.00 | 79 | 1012.1 |
| 20260509235335 | 56 | 120 | 0.0 | 0.0 | 0.00 | 0.00 | 0.00 | 79 | 1012.1 |
| 20260509235132 | 56 | 121 | 0.0 | 0.0 | 0.00 | 0.00 | 0.00 | 79 | 1012.1 |
| 20260509234922 | 56 | 120 | 0.0 | 0.0 | 0.00 | 0.00 | 0.00 | 79 | 1012.0 |
| 20260509234720 | 56 | 120 | 0.0 | 0.0 | 0.00 | 0.00 | 0.00 | 79 | 1012.1 |
| 20260509234520 | 55 | 120 | 0.0 | 2.0 | 0.00 | 0.00 | 0.00 | 79 | 1012.1 |
| 20260509234311 | 55 | 120 | 0.0 | 2.0 | 0.00 | 0.00 | 0.00 | 80 | 1012.1 |
| 20260509234103 | 55 | 120 | 0.0 | 2.0 | 0.00 | 0.00 | 0.00 | 81 | 1012.1 |
| 20260509233853 | 55 | 115 | 0.0 | 2.0 | 0.00 | 0.00 | 0.00 | 81 | 1012.2 |
| 20260509233651 | 55 | 120 | 0.0 | 2.0 | 0.00 | 0.00 | 0.00 | 81 | 1012.2 |
| 20260509233441 | 55 | 82 | 0.0 | 2.0 | 0.00 | 0.00 | 0.00 | 80 | 1012.2 |
| 20260509232918 | 55 | 120 | 0.0 | 0.0 | 0.00 | 0.00 | 0.00 | 80 | 1012.3 |
| 20260509232349 | 55 | 103 | 0.0 | 2.0 | 0.00 | 0.00 | 0.00 | 80 | 1012.2 |
| 20260509232147 | 55 | 94 | 0.0 | 2.0 | 0.00 | 0.00 | 0.00 | 79 | 1012.2 |
| 20260509231943 | 55 | 215 | 0.0 | 0.0 | 0.00 | 0.00 | 0.00 | 79 | 1012.2 |
| 20260509231734 | 55 | 215 | 0.0 | 1.0 | 0.00 | 0.00 | 0.00 | 80 | 1012.2 |
| 20260509231531 | 55 | 218 | 0.0 | 1.0 | 0.00 | 0.00 | 0.00 | 81 | 1012.3 |
| 20260509231326 | 55 | 230 | 0.0 | 1.0 | 0.00 | 0.00 | 0.00 | 81 | 1012.2 |
| 20260509231119 | 55 | 84 | 0.0 | 0.0 | 0.00 | 0.00 | 0.00 | 82 | 1012.2 |
| 20260509230914 | 55 | 108 | 0.0 | 3.0 | 0.00 | 0.00 | 0.00 | 83 | 1012.2 |
| 20260509230713 | 54 | 113 | 0.0 | 3.0 | 0.00 | 0.00 | 0.00 | 83 | 1012.2 |
| 20260509230513 | 54 | 102 | 0.0 | 2.0 | 0.00 | 0.00 | 0.00 | 84 | 1012.3 |
| 20260509225626 | 55 | 120 | 2.0 | 4.0 | 0.00 | 0.00 | 0.00 | 84 | 1012.3 |
| 20260509225058 | 54 | 105 | 2.0 | 4.0 | 0.00 | 0.00 | 0.00 | 84 | 1012.3 |
| 20260509224849 | 55 | 117 | 2.0 | 4.0 | 0.00 | 0.00 | 0.00 | 83 | 1012.3 |
| 20260509224649 | 55 | 116 | 2.0 | 4.0 | 0.00 | 0.00 | 0.00 | 83 | 1012.2 |
| 20260509224443 | 55 | 119 | 1.0 | 4.0 | 0.00 | 0.00 | 0.00 | 83 | 1012.3 |
| 20260509224232 | 55 | 104 | 1.0 | 4.0 | 0.00 | 0.00 | 0.00 | 83 | 1012.2 |
| 20260509224027 | 55 | 134 | 1.0 | 4.0 | 0.00 | 0.00 | 0.00 | 83 | 1012.2 |
| 20260509223827 | 55 | 118 | 1.0 | 4.0 | 0.00 | 0.00 | 0.00 | 82 | 1012.3 |
| 20260509223618 | 55 | 103 | 1.0 | 4.0 | 0.00 | 0.00 | 0.00 | 82 | 1012.2 |
| 20260509223408 | 55 | 115 | 1.0 | 4.0 | 0.00 | 0.00 | 0.00 | 82 | 1012.2 |
| 20260509223204 | 55 | 127 | 1.0 | 4.0 | 0.00 | 0.00 | 0.00 | 81 | 1012.4 |
| 20260509223004 | 55 | 110 | 1.0 | 4.0 | 0.00 | 0.00 | 0.00 | 81 | 1012.4 |
| 20260509222756 | 55 | 108 | 1.0 | 4.0 | 0.00 | 0.00 | 0.00 | 82 | 1012.3 |
| 20260509222549 | 55 | 82 | 1.0 | 4.0 | 0.00 | 0.00 | 0.00 | 82 | 1012.3 |
| 20260509222347 | 55 | 100 | 1.0 | 4.0 | 0.00 | 0.00 | 0.00 | 82 | 1012.3 |
| 20260509222139 | 55 | 96 | 1.0 | 4.0 | 0.00 | 0.00 | 0.00 | 82 | 1012.3 |
| 20260509221930 | 55 | 108 | 1.0 | 4.0 | 0.00 | 0.00 | 0.00 | 82 | 1012.3 |
| 20260509221729 | 55 | 110 | 1.0 | 4.0 | 0.00 | 0.00 | 0.00 | 82 | 1012.2 |
| 20260509221212 | 55 | 94 | 1.0 | 3.0 | 0.00 | 0.00 | 0.00 | 82 | 1012.3 |
| 20260509221004 | 55 | 115 | 1.0 | 6.0 | 0.00 | 0.00 | 0.00 | 82 | 1012.4 |
| 20260509220754 | 55 | 100 | 1.0 | 6.0 | 0.00 | 0.00 | 0.00 | 82 | 1012.3 |
| 20260509220544 | 55 | 114 | 2.0 | 6.0 | 0.00 | 0.00 | 0.00 | 82 | 1012.4 |
| 20260509220339 | 55 | 103 | 2.0 | 6.0 | 0.00 | 0.00 | 0.00 | 82 | 1012.4 |
| 20260509220130 | 55 | 105 | 2.0 | 6.0 | 0.00 | 0.00 | 0.00 | 81 | 1012.3 |
| 20260509215930 | 55 | 105 | 2.0 | 6.0 | 0.00 | 0.00 | 0.00 | 81 | 1012.3 |
| 20260509215730 | 55 | 105 | 2.0 | 6.0 | 0.00 | 0.00 | 0.00 | 81 | 1012.3 |
| 20260509215525 | 55 | 108 | 2.0 | 6.0 | 0.00 | 0.00 | 0.00 | 81 | 1012.4 |
| 20260509215004 | 55 | 115 | 2.0 | 4.0 | 0.00 | 0.00 | 0.00 | 81 | 1012.4 |
| 20260509214433 | 55 | 121 | 1.0 | 4.0 | 0.00 | 0.00 | 0.00 | 81 | 1012.3 |
| 20260509214234 | 55 | 110 | 1.0 | 4.0 | 0.00 | 0.00 | 0.00 | 81 | 1012.3 |
| 20260509213703 | 55 | 111 | 1.0 | 4.0 | 0.00 | 0.00 | 0.00 | 81 | 1012.3 |
| 20260509213456 | 55 | 103 | 2.0 | 4.0 | 0.00 | 0.00 | 0.00 | 80 | 1012.4 |
| 20260509213253 | 55 | 105 | 2.0 | 4.0 | 0.00 | 0.00 | 0.00 | 80 | 1012.5 |
| 20260509212724 | 56 | 108 | 1.0 | 4.0 | 0.00 | 0.00 | 0.00 | 80 | 1012.4 |
| 20260509212521 | 55 | 115 | 2.0 | 4.0 | 0.00 | 0.00 | 0.00 | 80 | 1012.5 |
| 20260509212312 | 55 | 103 | 2.0 | 4.0 | 0.00 | 0.00 | 0.00 | 80 | 1012.6 |
| 20260509212105 | 55 | 101 | 2.0 | 4.0 | 0.00 | 0.00 | 0.00 | 80 | 1012.5 |
| 20260509211541 | 56 | 119 | 2.0 | 5.0 | 0.00 | 0.00 | 0.00 | 81 | 1012.7 |
| 20260509211340 | 56 | 115 | 2.0 | 5.0 | 0.00 | 0.00 | 0.00 | 81 | 1012.8 |
| 20260509211131 | 56 | 105 | 2.0 | 5.0 | 0.00 | 0.00 | 0.00 | 81 | 1012.7 |
| 20260509210931 | 56 | 106 | 1.0 | 5.0 | 0.00 | 0.00 | 0.00 | 80 | 1012.8 |
| 20260509210723 | 56 | 103 | 1.0 | 5.0 | 0.00 | 0.00 | 0.00 | 80 | 1012.8 |
| 20260509210153 | 56 | 75 | 1.0 | 5.0 | 0.00 | 0.00 | 0.00 | 81 | 1012.8 |
| 20260509205942 | 56 | 105 | 1.0 | 5.0 | 0.00 | 0.00 | 0.00 | 80 | 1012.9 |
| 20260509205734 | 56 | 101 | 2.0 | 5.0 | 0.00 | 0.00 | 0.00 | 80 | 1012.9 |
| 20260509205529 | 56 | 84 | 2.0 | 5.0 | 0.00 | 0.00 | 0.00 | 80 | 1012.9 |